| time (UTC) | temp F | wind direction | speed MPH | gust MPH | rain 1hr in | rain 24hr in | rain mn in | humidity % | barometer mb |
| 20260504050508 | 57 | 230 | 13.0 | 19.0 | 0.00 | 0.00 | 0.00 | 1 | 1007.3 |
| 20260504050005 | 57 | 248 | 14.0 | 17.0 | 0.00 | 0.00 | 0.00 | 1 | 1007.3 |
| 20260504045501 | 57 | 234 | 7.0 | 17.0 | 0.00 | 0.00 | 0.00 | 1 | 1007.3 |
| 20260504044957 | 57 | 238 | 9.0 | 16.0 | 0.00 | 0.00 | 0.00 | 1 | 1007.4 |
| 20260504044455 | 57 | 245 | 11.0 | 15.0 | 0.00 | 0.00 | 0.00 | 1 | 1007.4 |
| 20260504043952 | 57 | 235 | 14.0 | 14.0 | 0.00 | 0.00 | 0.00 | 1 | 1007.4 |
| 20260504043449 | 58 | 235 | 13.0 | 17.0 | 0.00 | 0.00 | 0.00 | 1 | 1007.4 |
| 20260504042947 | 57 | 240 | 9.0 | 16.0 | 0.00 | 0.00 | 0.00 | 1 | 1007.4 |
| 20260504042443 | 57 | 227 | 8.0 | 15.0 | 0.00 | 0.00 | 0.00 | 1 | 1007.7 |
| 20260504041940 | 57 | 224 | 7.0 | 15.0 | 0.00 | 0.00 | 0.00 | 1 | 1007.7 |
| 20260504041436 | 58 | 227 | 9.0 | 11.0 | 0.00 | 0.00 | 0.00 | 1 | 1007.6 |
| 20260504040932 | 58 | 231 | 8.0 | 14.0 | 0.00 | 0.00 | 0.00 | 1 | 1007.7 |
| 20260504040430 | 58 | 228 | 7.0 | 12.0 | 0.00 | 0.00 | 0.00 | 1 | 1007.7 |
| 20260504035925 | 58 | 244 | 6.0 | 9.0 | 0.00 | 0.00 | 0.00 | 1 | 1007.9 |
| 20260504035423 | 58 | 228 | 6.0 | 11.0 | 0.00 | 0.00 | 0.00 | 1 | 1007.9 |
| 20260504034920 | 59 | 236 | 7.0 | 11.0 | 0.00 | 0.00 | 0.00 | 1 | 1008.0 |
| 20260504034417 | 59 | 229 | 6.0 | 11.0 | 0.00 | 0.00 | 0.00 | 1 | 1008.0 |
| 20260504033914 | 59 | 232 | 7.0 | 10.0 | 0.00 | 0.00 | 0.00 | 1 | 1007.8 |
| 20260504033412 | 59 | 249 | 8.0 | 10.0 | 0.00 | 0.00 | 0.00 | 1 | 1007.8 |
| 20260504032909 | 60 | 215 | 4.0 | 11.0 | 0.00 | 0.00 | 0.00 | 1 | 1008.0 |
| 20260504032406 | 60 | 229 | 7.0 | 12.0 | 0.00 | 0.00 | 0.00 | 1 | 1007.9 |
| 20260504031902 | 60 | 229 | 5.0 | 11.0 | 0.00 | 0.00 | 0.00 | 1 | 1008.0 |
| 20260504031359 | 61 | 227 | 6.0 | 11.0 | 0.00 | 0.00 | 0.00 | 1 | 1008.1 |
| 20260504030855 | 61 | 227 | 6.0 | 7.0 | 0.00 | 0.00 | 0.00 | 1 | 1008.1 |
| 20260504030353 | 61 | 192 | 3.0 | 6.0 | 0.00 | 0.00 | 0.00 | 1 | 1008.0 |
| 20260504025849 | 61 | 219 | 3.0 | 5.0 | 0.00 | 0.00 | 0.00 | 1 | 1008.0 |
| 20260504025346 | 61 | 198 | 3.0 | 5.0 | 0.00 | 0.00 | 0.00 | 1 | 1008.1 |
| 20260504024843 | 61 | 257 | 4.0 | 4.0 | 0.00 | 0.00 | 0.00 | 1 | 1008.1 |
| 20260504024339 | 62 | 199 | 2.0 | 4.0 | 0.00 | 0.00 | 0.00 | 1 | 1008.2 |
| 20260504023836 | 62 | 227 | 3.0 | 4.0 | 0.00 | 0.00 | 0.00 | 1 | 1008.1 |
| 20260504023333 | 62 | 187 | 2.0 | 4.0 | 0.00 | 0.00 | 0.00 | 1 | 1008.2 |
| 20260504022828 | 63 | 196 | 2.0 | 6.0 | 0.00 | 0.00 | 0.00 | 1 | 1008.3 |
| 20260504022326 | 63 | 199 | 4.0 | 6.0 | 0.00 | 0.00 | 0.00 | 1 | 1008.5 |
| 20260504021822 | 63 | 202 | 2.0 | 5.0 | 0.00 | 0.00 | 0.00 | 1 | 1008.3 |
| 20260504021320 | 63 | 180 | 1.0 | 5.0 | 0.00 | 0.00 | 0.00 | 1 | 1008.4 |
| 20260504020817 | 63 | 216 | 3.0 | 4.0 | 0.00 | 0.00 | 0.00 | 1 | 1008.4 |
| 20260504020313 | 64 | 195 | 1.0 | 3.0 | 0.00 | 0.00 | 0.00 | 1 | 1008.4 |
| 20260504015809 | 64 | 192 | 1.0 | 3.0 | 0.00 | 0.00 | 0.00 | 1 | 1008.5 |
| 20260504015306 | 65 | 203 | 2.0 | 3.0 | 0.00 | 0.00 | 0.00 | 1 | 1008.6 |
| 20260504014802 | 65 | 192 | 0.0 | 2.0 | 0.00 | 0.00 | 0.00 | 1 | 1008.8 |
| 20260504014258 | 66 | 217 | 2.0 | 3.0 | 0.00 | 0.00 | 0.00 | 1 | 1008.6 |
| 20260504013756 | 66 | 248 | 2.0 | 2.0 | 0.00 | 0.00 | 0.00 | 1 | 1008.9 |
| 20260504013253 | 66 | 240 | 1.0 | 2.0 | 0.00 | 0.00 | 0.00 | 1 | 1008.9 |
| 20260504012749 | 66 | 221 | 2.0 | 2.0 | 0.00 | 0.00 | 0.00 | 1 | 1008.8 |
| 20260504012247 | 67 | 237 | 2.0 | 4.0 | 0.00 | 0.00 | 0.00 | 1 | 1008.9 |
| 20260504011744 | 67 | 238 | 3.0 | 4.0 | 0.00 | 0.00 | 0.00 | 1 | 1009.0 |
| 20260504011241 | 68 | 244 | 3.0 | 4.0 | 0.00 | 0.00 | 0.00 | 1 | 1008.9 |
| 20260504010737 | 68 | 270 | 2.0 | 4.0 | 0.00 | 0.00 | 0.00 | 1 | 1009.0 |
| 20260504010232 | 69 | 297 | 2.0 | 3.0 | 0.00 | 0.00 | 0.00 | 1 | 1009.3 |
| 20260504005730 | 69 | 240 | 3.0 | 6.0 | 0.00 | 0.00 | 0.00 | 1 | 1009.5 |
| 20260504005227 | 69 | 237 | 2.0 | 6.0 | 0.00 | 0.00 | 0.00 | 1 | 1009.5 |
| 20260504004724 | 69 | 252 | 5.0 | 8.0 | 0.00 | 0.00 | 0.00 | 1 | 1009.5 |
| 20260504004221 | 70 | 254 | 5.0 | 6.0 | 0.00 | 0.00 | 0.00 | 1 | 1009.6 |
| 20260504003718 | 70 | 257 | 4.0 | 8.0 | 0.00 | 0.00 | 0.00 | 1 | 1009.7 |
| 20260504003215 | 70 | 252 | 8.0 | 8.0 | 0.00 | 0.00 | 0.00 | 1 | 1009.8 |
| 20260504002712 | 70 | 292 | 3.0 | 5.0 | 0.00 | 0.00 | 0.00 | 1 | 1009.9 |
| 20260504002209 | 70 | 270 | 5.0 | 7.0 | 0.00 | 0.00 | 0.00 | 1 | 1009.8 |
| 20260504001707 | 70 | 263 | 6.0 | 9.0 | 0.00 | 0.00 | 0.00 | 1 | 1009.9 |
| 20260504001203 | 70 | 257 | 6.0 | 9.0 | 0.00 | 0.00 | 0.00 | 1 | 1009.9 |
| 20260504000700 | 70 | 259 | 5.0 | 8.0 | 0.00 | 0.00 | 0.00 | 1 | 1010.3 |
| 20260504000157 | 70 | 261 | 3.0 | 8.0 | 0.00 | 0.00 | 0.00 | 1 | 1010.3 |
| 20260503235655 | 70 | 254 | 7.0 | 10.0 | 0.00 | 0.00 | 0.00 | 1 | 1010.5 |
| 20260503235151 | 70 | 252 | 5.0 | 9.0 | 0.00 | 0.00 | 0.00 | 1 | 1010.5 |
| 20260503234649 | 70 | 292 | 6.0 | 9.0 | 0.00 | 0.00 | 0.00 | 1 | 1010.7 |
| 20260503234148 | 71 | 288 | 2.0 | 7.0 | 0.00 | 0.00 | 0.00 | 1 | 1010.6 |
| 20260503233644 | 70 | 311 | 0.0 | 10.0 | 0.00 | 0.00 | 0.00 | 1 | 1010.8 |
| 20260503233139 | 70 | 300 | 5.0 | 9.0 | 0.00 | 0.00 | 0.00 | 1 | 1010.8 |
| 20260503232637 | 70 | 332 | 9.0 | 10.0 | 0.00 | 0.00 | 0.00 | 1 | 1011.1 |
| 20260503232134 | 70 | 277 | 7.0 | 13.0 | 0.00 | 0.00 | 0.00 | 1 | 1010.9 |
| 20260503231632 | 70 | 292 | 7.0 | 11.0 | 0.00 | 0.00 | 0.00 | 1 | 1011.1 |
| 20260503231128 | 70 | 296 | 3.0 | 8.0 | 0.00 | 0.00 | 0.00 | 1 | 1011.4 |
| 20260503230625 | 70 | 255 | 12.0 | 16.0 | 0.00 | 0.00 | 0.00 | 1 | 1011.4 |
| 20260503230122 | 69 | 235 | 7.0 | 9.0 | 0.00 | 0.00 | 0.00 | 1 | 1011.5 |
| 20260503225620 | 70 | 285 | 8.0 | 10.0 | 0.00 | 0.00 | 0.00 | 1 | 1011.4 |
| 20260503225119 | 70 | 284 | 7.0 | 8.0 | 0.00 | 0.00 | 0.00 | 1 | 1011.4 |
| 20260503224617 | 70 | 241 | 2.0 | 12.0 | 0.00 | 0.00 | 0.00 | 1 | 1011.5 |
| 20260503224115 | 70 | 318 | 0.0 | 14.0 | 0.00 | 0.00 | 0.00 | 1 | 1011.7 |
| 20260503223613 | 69 | 295 | 6.0 | 11.0 | 0.00 | 0.00 | 0.00 | 1 | 1011.7 |
| 20260503223108 | 69 | 306 | 9.0 | 14.0 | 0.00 | 0.00 | 0.00 | 1 | 1011.8 |
| 20260503222606 | 70 | 290 | 3.0 | 11.0 | 0.00 | 0.00 | 0.00 | 1 | 1012.0 |
| 20260503222104 | 69 | 289 | 6.0 | 12.0 | 0.00 | 0.00 | 0.00 | 1 | 1012.0 |
| 20260503221602 | 68 | 239 | 11.0 | 13.0 | 0.00 | 0.00 | 0.00 | 1 | 1012.3 |
| 20260503221059 | 68 | 294 | 6.0 | 10.0 | 0.00 | 0.00 | 0.00 | 1 | 1012.2 |
| 20260503220555 | 69 | 326 | 5.0 | 12.0 | 0.00 | 0.00 | 0.00 | 1 | 1012.3 |
| 20260503220052 | 69 | 307 | 6.0 | 10.0 | 0.00 | 0.00 | 0.00 | 1 | 1012.5 |
| 20260503215549 | 69 | 281 | 8.0 | 13.0 | 0.00 | 0.00 | 0.00 | 1 | 1012.3 |
| 20260503215046 | 68 | 274 | 11.0 | 13.0 | 0.00 | 0.00 | 0.00 | 1 | 1012.5 |
| 20260503214544 | 68 | 303 | 9.0 | 17.0 | 0.00 | 0.00 | 0.00 | 1 | 1012.6 |
| 20260503214040 | 69 | 294 | 4.0 | 11.0 | 0.00 | 0.00 | 0.00 | 1 | 1012.7 |
| 20260503213539 | 69 | 315 | 8.0 | 10.0 | 0.00 | 0.00 | 0.00 | 1 | 1012.7 |
| 20260503213035 | 70 | 286 | 9.0 | 17.0 | 0.00 | 0.00 | 0.00 | 1 | 1013.0 |
| 20260503212533 | 68 | 247 | 10.0 | 14.0 | 0.00 | 0.00 | 0.00 | 1 | 1013.0 |
| 20260503212030 | 68 | 317 | 5.0 | 12.0 | 0.00 | 0.00 | 0.00 | 1 | 1013.1 |
| 20260503211527 | 68 | 315 | 3.0 | 10.0 | 0.00 | 0.00 | 0.00 | 1 | 1013.2 |
| 20260503211023 | 68 | 312 | 8.0 | 11.0 | 0.00 | 0.00 | 0.00 | 1 | 1013.4 |
| 20260503210520 | 67 | 254 | 13.0 | 19.0 | 0.00 | 0.00 | 0.00 | 1 | 1013.6 |
| 20260503210015 | 68 | 292 | 10.0 | 16.0 | 0.00 | 0.00 | 0.00 | 1 | 1013.6 |
| 20260503205512 | 67 | 274 | 11.0 | 15.0 | 0.00 | 0.00 | 0.00 | 1 | 1013.8 |
| 20260503205009 | 67 | 258 | 8.0 | 17.0 | 0.00 | 0.00 | 0.00 | 1 | 1013.8 |
| 20260503204506 | 68 | 281 | 10.0 | 15.0 | 0.00 | 0.00 | 0.00 | 1 | 1014.0 |
| 20260503204002 | 68 | 276 | 10.0 | 17.0 | 0.00 | 0.00 | 0.00 | 1 | 1014.0 |
| 20260503203500 | 67 | 277 | 11.0 | 15.0 | 0.00 | 0.00 | 0.00 | 1 | 1013.9 |
| 20260503202956 | 67 | 253 | 9.0 | 15.0 | 0.00 | 0.00 | 0.00 | 1 | 1014.1 |
| 20260503202455 | 67 | 287 | 14.0 | 15.0 | 0.00 | 0.00 | 0.00 | 1 | 1014.3 |
| 20260503201953 | 66 | 260 | 12.0 | 12.0 | 0.00 | 0.00 | 0.00 | 1 | 1014.5 |
| 20260503201450 | 66 | 294 | 12.0 | 19.0 | 0.00 | 0.00 | 0.00 | 1 | 1014.8 |
| 20260503200947 | 67 | 308 | 5.0 | 9.0 | 0.00 | 0.00 | 0.00 | 1 | 1014.6 |
| 20260503200444 | 65 | 256 | 7.0 | 15.0 | 0.00 | 0.00 | 0.00 | 1 | 1014.9 |
| 20260503195940 | 65 | 279 | 9.0 | 20.0 | 0.00 | 0.00 | 0.00 | 1 | 1014.8 |
| 20260503195438 | 65 | 269 | 12.0 | 20.0 | 0.00 | 0.00 | 0.00 | 1 | 1014.8 |
| 20260503194934 | 65 | 264 | 11.0 | 19.0 | 0.00 | 0.00 | 0.00 | 1 | 1015.0 |
| 20260503194431 | 65 | 261 | 16.0 | 16.0 | 0.00 | 0.00 | 0.00 | 1 | 1014.9 |
| 20260503193926 | 66 | 275 | 15.0 | 17.0 | 0.00 | 0.00 | 0.00 | 1 | 1015.0 |
| 20260503193422 | 65 | 312 | 9.0 | 16.0 | 0.00 | 0.00 | 0.00 | 1 | 1015.0 |
| 20260503192918 | 65 | 260 | 8.0 | 13.0 | 0.00 | 0.00 | 0.00 | 1 | 1015.2 |
| 20260503192414 | 65 | 261 | 7.0 | 18.0 | 0.00 | 0.00 | 0.00 | 1 | 1015.1 |
| 20260503191910 | 65 | 272 | 10.0 | 20.0 | 0.00 | 0.00 | 0.00 | 1 | 1015.2 |
| 20260503191408 | 65 | 273 | 10.0 | 18.0 | 0.00 | 0.00 | 0.00 | 1 | 1015.3 |
| 20260503190904 | 65 | 246 | 21.0 | 21.0 | 0.00 | 0.00 | 0.00 | 1 | 1015.6 |
| 20260503190401 | 64 | 293 | 14.0 | 22.0 | 0.00 | 0.00 | 0.00 | 1 | 1015.6 |
| 20260503185858 | 65 | 295 | 14.0 | 22.0 | 0.00 | 0.00 | 0.00 | 1 | 1015.8 |
| 20260503185355 | 65 | 255 | 12.0 | 15.0 | 0.00 | 0.00 | 0.00 | 1 | 1015.8 |
| 20260503184854 | 64 | 275 | 9.0 | 20.0 | 0.00 | 0.00 | 0.00 | 1 | 1015.9 |
| 20260503184350 | 64 | 258 | 16.0 | 20.0 | 0.00 | 0.00 | 0.00 | 1 | 1015.7 |
| 20260503183846 | 64 | 282 | 15.0 | 20.0 | 0.00 | 0.00 | 0.00 | 1 | 1015.9 |
| 20260503183344 | 64 | 277 | 12.0 | 16.0 | 0.00 | 0.00 | 0.00 | 1 | 1016.0 |
| 20260503182841 | 64 | 297 | 17.0 | 18.0 | 0.00 | 0.00 | 0.00 | 1 | 1016.0 |
| 20260503182340 | 63 | 257 | 16.0 | 23.0 | 0.00 | 0.00 | 0.00 | 1 | 1016.2 |
| 20260503181837 | 64 | 257 | 10.0 | 21.0 | 0.00 | 0.00 | 0.00 | 1 | 1016.2 |
| 20260503181334 | 64 | 273 | 15.0 | 20.0 | 0.00 | 0.00 | 0.00 | 1 | 1016.3 |
| 20260503180830 | 63 | 274 | 11.0 | 22.0 | 0.00 | 0.00 | 0.00 | 1 | 1016.3 |
| 20260503180328 | 63 | 274 | 7.0 | 22.0 | 0.00 | 0.00 | 0.00 | 1 | 1016.4 |
| 20260503175824 | 63 | 281 | 21.0 | 21.0 | 0.00 | 0.00 | 0.00 | 1 | 1016.3 |
| 20260503175323 | 65 | 283 | 14.0 | 14.0 | 0.00 | 0.00 | 0.00 | 1 | 1016.4 |
| 20260503174818 | 64 | 290 | 14.0 | 18.0 | 0.00 | 0.00 | 0.00 | 1 | 1016.9 |
| 20260503174316 | 62 | 296 | 11.0 | 18.0 | 0.00 | 0.00 | 0.00 | 1 | 1016.7 |
| 20260503173811 | 64 | 300 | 5.0 | 19.0 | 0.00 | 0.00 | 0.00 | 1 | 1016.7 |
| 20260503173308 | 63 | 271 | 10.0 | 17.0 | 0.00 | 0.00 | 0.00 | 1 | 1016.9 |
| 20260503172805 | 63 | 280 | 6.0 | 12.0 | 0.00 | 0.00 | 0.00 | 1 | 1016.9 |
| 20260503172305 | 63 | 253 | 13.0 | 15.0 | 0.00 | 0.00 | 0.00 | 1 | 1017.0 |
| 20260503171758 | 63 | 305 | 7.0 | 16.0 | 0.00 | 0.00 | 0.00 | 1 | 1016.9 |
| 20260503171255 | 63 | 282 | 8.0 | 15.0 | 0.00 | 0.00 | 0.00 | 1 | 1017.2 |
| 20260503170752 | 64 | 258 | 9.0 | 14.0 | 0.00 | 0.00 | 0.00 | 1 | 1016.9 |
| 20260503170249 | 62 | 290 | 9.0 | 17.0 | 0.00 | 0.00 | 0.00 | 1 | 1017.2 |
| 20260503160211 | 59 | 264 | 9.0 | 10.0 | 0.00 | 0.00 | 0.00 | 1 | 1017.4 |
| 20260503150641 | 56 | 249 | 3.0 | 9.0 | 0.00 | 0.00 | 0.00 | 1 | 1017.8 |
| 20260503150137 | 55 | 239 | 2.0 | 7.0 | 0.00 | 0.00 | 0.00 | 1 | 1017.9 |
| 20260503131031 | 50 | 273 | 7.0 | 11.0 | 0.00 | 0.00 | 0.00 | 1 | 1018.1 |
| 20260503130528 | 50 | 290 | 7.0 | 8.0 | 0.00 | 0.00 | 0.00 | 1 | 1018.0 |
| 20260503110419 | 46 | 304 | 9.0 | 12.0 | 0.00 | 0.00 | 0.00 | 1 | 1017.2 |
| 20260503090310 | 47 | 336 | 6.0 | 7.0 | 0.00 | 0.00 | 0.00 | 1 | 1016.5 |
| 20260503081243 | 49 | 298 | 6.0 | 9.0 | 0.00 | 0.00 | 0.00 | 1 | 1016.0 |
| 20260503080738 | 49 | 333 | 4.0 | 7.0 | 0.00 | 0.00 | 0.00 | 1 | 1016.0 |
| 20260503080236 | 49 | 317 | 5.0 | 7.0 | 0.00 | 0.00 | 0.00 | 1 | 1016.0 |
| 20260503072712 | 49 | 296 | 5.0 | 7.0 | 0.00 | 0.00 | 0.00 | 1 | 1015.6 |
| 20260503072209 | 49 | 28 | 2.0 | 8.0 | 0.00 | 0.00 | 0.00 | 1 | 1015.7 |
| 20260503071706 | 48 | 18 | 6.0 | 8.0 | 0.00 | 0.00 | 0.00 | 1 | 1015.5 |
| 20260503071203 | 48 | 354 | 4.0 | 10.0 | 0.00 | 0.00 | 0.00 | 1 | 1015.7 |
| 20260503070659 | 48 | 358 | 4.0 | 7.0 | 0.00 | 0.00 | 0.00 | 1 | 1015.8 |
| 20260503070158 | 48 | 270 | 2.0 | 9.0 | 0.00 | 0.00 | 0.00 | 1 | 1015.8 |